星链-30523 (STARLINK-30523 )

导读 | 豆包AI

STARLINK-30523是美国SpaceX星链星座中的卫星,属于第111批星链6-21任务,于2023年10月5日在卡纳维拉尔角由猎鹰九号火箭成功发射。它属于星链V2 Mini版本,通信能力更强,采用氩霍尔电推进系统,旨在为全球提供高速宽带互联网服务,目前在轨稳定运行,是星链全球组网的重要组成部分,进一步推动了低轨卫星互联网的覆盖进程。

基本信息
目录编号:
57997
目录名称:
STARLINK-30523
国际标识:
2023-153G
轨道中心:
EARTH
卫星名称:
星链-30523
卫星全名:
星链-30523 (STARLINK-30523 )
卫星状态:
在轨 (已飞行938 天)
发射日期:
2023-10-05 UTC
国别 :
美国 (US)
星等 :
--
轨道信息
数据来源 国际轨道数据 AOE轨道数据
星历时间 2026-04-29T21:02:54+0800
1天前
查看轨道信息
2026-04-26T08:00:00+0800
4天前
查看轨道信息
半长轴 6861.182km 6861.1km
偏心率 0.0001405 0.0001509
轨道倾角 43.001° 43.002°
近地点辐角 270.757° 276.238°
升交点赤经 139.876° 159.891°
平近点角 89.312° 13.359°
近地点 482.081km 481.927km
远地点 484.009km 483.999km
周期 94.267分钟 94.265分钟
每日圈数 15.275815 15.27609
详细信息
固有亮度:
5
最大亮度:
0.3
卫星平台:
Starlink v2.0 mini
覆盖范围:
全球
运营商:
太空探索技术公司
运营商所在国:
美国
制造商(研发单位):
太空探索技术公司
制造商所在国:
美国
使用方式:
暂无
卫星简介
星链(Starlink)计划是由太空探索技术公司(SpaceX)提出的一个巨型低轨卫星互联网星座项目,计划在2019年至2024年间在太空搭建由约1.2万颗卫星组成的“星链”网络,其中1584颗将部署在地球上空550千米处的近地轨道,并从2020年开始工作。该卫星仍在工作。
2D轨道图
3D轨道图
轨道高度分析图
轨道倾角分析图
轨道综合分析图
查看轨道综合分析图